Terminal Aerodrome Forecast
Issued by NWS Detroit/Pontiac, MI

Home | Current Version | Previous Version | Text Only | Print | Product List | Glossary On
Versions: 1 2 3 4 5 6 7 8 9 10 11 12 13 14 15 16 17 18 19 20 21 22 23 24 25
000
FTUS43 KDTX 181720
TAFFNT
TAF
KFNT 181720Z 1818/1918 29010KT 3SM -FZDZ BR OVC007
     FM190000 30003KT P6SM OVC010
     FM191300 34005KT P6SM BKN025=

USA.gov is the U.S. government's official web portal to all federal, state and local government web resources and services.